User: anonymous   Login
Location: Pasadena, ca
(34.1243°N, 118.1037°W)
Time: 10:55:20
(UTC-07:00)
Language:

N. Korean satellite - Orbit

View from above orbital plane
View from above orbital plane
View from above satellite
View from above satellite

Ground track
Ground track

The orbit data is extracted from the following two-line orbital elements,

1 39026U 12072A   18172.08813171  .00001129  00000-0  44799-4 0  9990
2 39026  97.2100 182.3205 0037802 311.0975  48.7001 15.26770047306253
Epoch (UTC): 21 June 2018 02:06:54
Eccentricity: 0.0037802
inclination: 97.2100°
perigee height: 459 km
apogee height: 511 km
right ascension of ascending node: 182.3205°
argument of perigee: 311.0975°
revolutions per day: 15.26770047
mean anomaly at epoch: 48.7001°
orbit number at epoch: 30625

The dashed part of the orbit path shows where the satellite is in the earth's shadow,  

DLR